Location: Waco, TX
(31.5480°N, 97.1670°W)
Time: 01:29:33
(UTC-06:00)

ISS - Pass Details

Date: 11 November 2018
Orbit: 401 x 408 km, 51.6° (Epoch: 20 November)

Event Time Altitude Azimuth Distance (km) Brightness Sun altitude
Rises 22:26:41 0° 206° (SSW) 2,295 - -62.3°
Reaches altitude 10° 22:28:52 10° 196° (SSW) 1,440 - -62.7°
Maximum altitude 22:31:48 33° 130° (SE) 691 - -63.3°
Drops below altitude 10° 22:34:46 10° 64° (ENE) 1,448 - -63.9°
Sets 22:36:58 0° 55° (NE) 2,310 - -64.3°
